Information on these data can be found in provided Readme document
Contact Info: Zachary Fasnacht (zachary.fasnacht@ssaihq.com); Nickolay Krotkov (nickolay.a.krotkov@nasa.gov); Lok Lamsal (lok.lamsal@nasa.gov)

FillValue: -999.
ScaleFactor: 1e15
Units: molecules/cm^2

Date(yyyy-mm-dd),City,Country,LonCenter,LatCenter,BoundingCoordinates,Median,Q1,Q3,Mean,Baseline_Median,Baseline_Q1,Baseline_Q3,Baseline_Mean,NumGoodSamples,NumTotalSamples
2015-01-01,SanFrancisco-SanJose,USA,-122.4333,37.7833,[-122.9333 37.2833 -121.9333 38.2833],2.661,1.036,4.888,3.116,2.602,1.255,4.541,3.071,204.0,557.0
2015-01-02,SanFrancisco-SanJose,USA,-122.4333,37.7833,[-122.9333 37.2833 -121.9333 38.2833],3.387,1.86,5.628,3.747,2.896,1.604,4.799,3.317,174.0,563.0
2015-01-03,SanFrancisco-SanJose,USA,-122.4333,37.7833,[-122.9333 37.2833 -121.9333 38.2833],3.471,1.92,5.893,4.068,3.139,1.684,5.309,3.654,183.0,560.0
2015-01-04,SanFrancisco-SanJose,USA,-122.4333,37.7833,[-122.9333 37.2833 -121.9333 38.2833],3.997,2.504,6.25,4.508,3.594,1.983,5.704,4.001,163.0,568.0
2015-01-05,SanFrancisco-SanJose,USA,-122.4333,37.7833,[-122.9333 37.2833 -121.9333 38.2833],4.491,3.044,6.162,4.748,4.201,2.363,6.018,4.395,156.0,570.0
2015-01-06,SanFrancisco-SanJose,USA,-122.4333,37.7833,[-122.9333 37.2833 -121.9333 38.2833],4.613,3.01,6.174,4.757,4.25,2.442,6.039,4.356,184.0,573.0
2015-01-07,SanFrancisco-SanJose,USA,-122.4333,37.7833,[-122.9333 37.2833 -121.9333 38.2833],5.068,3.454,6.281,5.134,4.474,2.697,5.954,4.562,164.0,577.0
2015-01-08,SanFrancisco-SanJose,USA,-122.4333,37.7833,[-122.9333 37.2833 -121.9333 38.2833],5.135,3.471,6.326,5.428,4.581,2.814,6.014,4.752,175.0,563.0
2015-01-09,SanFrancisco-SanJose,USA,-122.4333,37.7833,[-122.9333 37.2833 -121.9333 38.2833],5.502,3.959,6.89,5.91,4.916,3.609,6.414,5.254,145.0,524.0
2015-01-10,SanFrancisco-SanJose,USA,-122.4333,37.7833,[-122.9333 37.2833 -121.9333 38.2833],5.135,3.454,6.549,5.431,4.805,3.418,6.306,5.106,160.0,519.0
2015-01-11,SanFrancisco-SanJose,USA,-122.4333,37.7833,[-122.9333 37.2833 -121.9333 38.2833],5.086,3.234,6.796,5.433,4.572,3.166,6.191,4.947,129.0,531.0
2015-01-12,SanFrancisco-SanJose,USA,-122.4333,37.7833,[-122.9333 37.2833 -121.9333 38.2833],4.463,3.01,6.109,5.119,4.328,3.031,5.926,4.797,122.0,526.0
2015-01-13,SanFrancisco-SanJose,USA,-122.4333,37.7833,[-122.9333 37.2833 -121.9333 38.2833],4.463,3.01,6.19,5.17,4.113,2.779,5.885,4.691,151.0,528.0
2015-01-14,SanFrancisco-SanJose,USA,-122.4333,37.7833,[-122.9333 37.2833 -121.9333 38.2833],4.427,2.663,6.109,5.045,3.983,2.458,5.671,4.426,129.0,534.0
2015-01-15,SanFrancisco-SanJose,USA,-122.4333,37.7833,[-122.9333 37.2833 -121.9333 38.2833],4.589,2.712,6.282,5.125,3.915,2.446,5.549,4.388,153.0,530.0
2015-01-16,SanFrancisco-SanJose,USA,-122.4333,37.7833,[-122.9333 37.2833 -121.9333 38.2833],4.589,2.712,6.282,5.125,4.135,2.477,5.731,4.431,153.0,528.0
2015-01-17,SanFrancisco-SanJose,USA,-122.4333,37.7833,[-122.9333 37.2833 -121.9333 38.2833],4.158,2.599,5.807,4.752,4.047,2.545,5.641,4.4,183.0,519.0
2015-01-18,SanFrancisco-SanJose,USA,-122.4333,37.7833,[-122.9333 37.2833 -121.9333 38.2833],4.01,2.594,5.526,4.482,3.933,2.529,5.524,4.268,174.0,522.0
2015-01-19,SanFrancisco-SanJose,USA,-122.4333,37.7833,[-122.9333 37.2833 -121.9333 38.2833],4.036,2.599,6.109,4.648,3.942,2.557,5.695,4.329,197.0,518.0
2015-01-20,SanFrancisco-SanJose,USA,-122.4333,37.7833,[-122.9333 37.2833 -121.9333 38.2833],3.984,2.482,6.286,4.647,3.89,2.561,5.497,4.263,177.0,521.0
2015-01-21,SanFrancisco-SanJose,USA,-122.4333,37.7833,[-122.9333 37.2833 -121.9333 38.2833],4.368,2.663,6.777,4.886,4.061,2.57,5.806,4.398,169.0,520.0
2015-01-22,SanFrancisco-SanJose,USA,-122.4333,37.7833,[-122.9333 37.2833 -121.9333 38.2833],4.463,2.688,6.783,4.997,4.074,2.538,5.768,4.412,197.0,524.0
2015-01-23,SanFrancisco-SanJose,USA,-122.4333,37.7833,[-122.9333 37.2833 -121.9333 38.2833],4.158,2.6,6.777,4.725,4.09,2.593,5.869,4.413,186.0,530.0
2015-01-24,SanFrancisco-SanJose,USA,-122.4333,37.7833,[-122.9333 37.2833 -121.9333 38.2833],4.01,2.482,6.479,4.518,3.952,2.489,5.741,4.268,206.0,559.0
2015-01-25,SanFrancisco-SanJose,USA,-122.4333,37.7833,[-122.9333 37.2833 -121.9333 38.2833],4.368,2.599,6.777,4.738,3.885,2.442,5.676,4.203,191.0,561.0
2015-01-26,SanFrancisco-SanJose,USA,-122.4333,37.7833,[-122.9333 37.2833 -121.9333 38.2833],4.427,2.594,6.777,4.795,3.92,2.448,5.713,4.236,208.0,556.0
2015-01-27,SanFrancisco-SanJose,USA,-122.4333,37.7833,[-122.9333 37.2833 -121.9333 38.2833],4.716,2.599,6.797,4.957,3.982,2.478,5.618,4.223,193.0,567.0
2015-01-28,SanFrancisco-SanJose,USA,-122.4333,37.7833,[-122.9333 37.2833 -121.9333 38.2833],4.638,2.6,6.783,4.904,3.984,2.545,5.732,4.232,163.0,562.0
2015-01-29,SanFrancisco-SanJose,USA,-122.4333,37.7833,[-122.9333 37.2833 -121.9333 38.2833],4.638,2.599,6.783,4.879,4.09,2.611,5.756,4.325,164.0,563.0
2015-01-30,SanFrancisco-SanJose,USA,-122.4333,37.7833,[-122.9333 37.2833 -121.9333 38.2833],4.638,2.599,6.783,4.797,3.962,2.548,5.706,4.212,140.0,568.0
2015-01-31,SanFrancisco-SanJose,USA,-122.4333,37.7833,[-122.9333 37.2833 -121.9333 38.2833],4.638,2.599,6.783,4.794,3.814,2.49,5.532,4.101,142.0,564.0
2015-02-01,SanFrancisco-SanJose,USA,-122.4333,37.7833,[-122.9333 37.2833 -121.9333 38.2833],5.499,2.688,7.336,5.232,3.863,2.351,5.688,4.127,112.0,564.0
2015-02-02,SanFrancisco-SanJose,USA,-122.4333,37.7833,[-122.9333 37.2833 -121.9333 38.2833],3.874,1.623,6.783,4.456,3.547,2.173,5.63,3.956,140.0,555.0
2015-02-03,SanFrancisco-SanJose,USA,-122.4333,37.7833,[-122.9333 37.2833 -121.9333 38.2833],3.247,1.492,6.479,4.183,3.4,2.103,5.47,3.892,117.0,560.0
2015-02-04,SanFrancisco-SanJose,USA,-122.4333,37.7833,[-122.9333 37.2833 -121.9333 38.2833],3.997,1.535,6.479,4.247,3.473,1.98,5.56,3.913,140.0,557.0
2015-02-05,SanFrancisco-SanJose,USA,-122.4333,37.7833,[-122.9333 37.2833 -121.9333 38.2833],2.741,1.426,5.917,3.767,3.241,1.99,5.292,3.784,120.0,564.0
2015-02-06,SanFrancisco-SanJose,USA,-122.4333,37.7833,[-122.9333 37.2833 -121.9333 38.2833],3.292,1.499,5.931,3.967,3.311,1.964,5.282,3.811,113.0,566.0
2015-02-07,SanFrancisco-SanJose,USA,-122.4333,37.7833,[-122.9333 37.2833 -121.9333 38.2833],3.249,1.499,5.931,3.894,3.242,1.882,5.066,3.654,141.0,569.0
2015-02-08,SanFrancisco-SanJose,USA,-122.4333,37.7833,[-122.9333 37.2833 -121.9333 38.2833],3.649,1.557,5.931,4.104,3.332,1.917,5.056,3.725,121.0,572.0
2015-02-09,SanFrancisco-SanJose,USA,-122.4333,37.7833,[-122.9333 37.2833 -121.9333 38.2833],3.776,1.599,6.032,4.215,3.421,2.003,5.006,3.792,135.0,559.0
2015-02-10,SanFrancisco-SanJose,USA,-122.4333,37.7833,[-122.9333 37.2833 -121.9333 38.2833],3.649,1.499,5.931,4.035,3.307,1.854,4.928,3.625,118.0,518.0
2015-02-11,SanFrancisco-SanJose,USA,-122.4333,37.7833,[-122.9333 37.2833 -121.9333 38.2833],3.329,1.608,5.917,3.974,3.25,1.727,4.931,3.602,140.0,511.0
2015-02-12,SanFrancisco-SanJose,USA,-122.4333,37.7833,[-122.9333 37.2833 -121.9333 38.2833],3.329,1.608,5.917,3.974,3.206,1.682,4.937,3.565,140.0,522.0
2015-02-13,SanFrancisco-SanJose,USA,-122.4333,37.7833,[-122.9333 37.2833 -121.9333 38.2833],3.623,2.259,5.917,4.211,3.134,1.771,4.883,3.533,168.0,517.0
2015-02-14,SanFrancisco-SanJose,USA,-122.4333,37.7833,[-122.9333 37.2833 -121.9333 38.2833],3.717,2.285,5.923,4.312,3.171,1.772,4.876,3.564,193.0,518.0
2015-02-15,SanFrancisco-SanJose,USA,-122.4333,37.7833,[-122.9333 37.2833 -121.9333 38.2833],3.678,2.173,5.917,4.287,3.159,1.718,4.936,3.558,196.0,526.0
2015-02-16,SanFrancisco-SanJose,USA,-122.4333,37.7833,[-122.9333 37.2833 -121.9333 38.2833],3.585,2.121,5.872,4.178,3.169,1.723,4.978,3.526,221.0,524.0
2015-02-17,SanFrancisco-SanJose,USA,-122.4333,37.7833,[-122.9333 37.2833 -121.9333 38.2833],4.145,2.931,5.978,4.604,3.308,1.864,4.96,3.647,193.0,526.0
2015-02-18,SanFrancisco-SanJose,USA,-122.4333,37.7833,[-122.9333 37.2833 -121.9333 38.2833],4.145,2.931,5.931,4.519,3.355,2.002,5.095,3.674,222.0,517.0
2015-02-19,SanFrancisco-SanJose,USA,-122.4333,37.7833,[-122.9333 37.2833 -121.9333 38.2833],3.891,2.931,5.923,4.522,3.196,1.891,4.963,3.553,199.0,522.0
2015-02-20,SanFrancisco-SanJose,USA,-122.4333,37.7833,[-122.9333 37.2833 -121.9333 38.2833],3.649,2.059,5.645,4.027,3.102,1.771,4.952,3.473,225.0,519.0
2015-02-21,SanFrancisco-SanJose,USA,-122.4333,37.7833,[-122.9333 37.2833 -121.9333 38.2833],3.472,1.737,5.414,3.743,3.053,1.684,4.882,3.387,204.0,525.0
2015-02-22,SanFrancisco-SanJose,USA,-122.4333,37.7833,[-122.9333 37.2833 -121.9333 38.2833],3.436,1.755,5.127,3.678,3.012,1.686,4.681,3.328,196.0,526.0
2015-02-23,SanFrancisco-SanJose,USA,-122.4333,37.7833,[-122.9333 37.2833 -121.9333 38.2833],3.375,1.743,5.093,3.606,2.899,1.605,4.611,3.241,220.0,530.0
2015-02-24,SanFrancisco-SanJose,USA,-122.4333,37.7833,[-122.9333 37.2833 -121.9333 38.2833],3.369,1.743,5.039,3.507,2.826,1.555,4.587,3.188,206.0,535.0
2015-02-25,SanFrancisco-SanJose,USA,-122.4333,37.7833,[-122.9333 37.2833 -121.9333 38.2833],3.387,1.828,5.093,3.599,2.949,1.65,4.676,3.301,227.0,562.0
2015-02-26,SanFrancisco-SanJose,USA,-122.4333,37.7833,[-122.9333 37.2833 -121.9333 38.2833],3.436,1.755,5.127,3.577,2.9,1.66,4.61,3.261,205.0,564.0
2015-02-27,SanFrancisco-SanJose,USA,-122.4333,37.7833,[-122.9333 37.2833 -121.9333 38.2833],3.369,1.665,5.039,3.4,2.963,1.66,4.635,3.233,236.0,558.0
2015-02-28,SanFrancisco-SanJose,USA,-122.4333,37.7833,[-122.9333 37.2833 -121.9333 38.2833],2.952,1.411,4.209,3.059,2.943,1.613,4.508,3.254,206.0,571.0
2015-03-01,SanFrancisco-SanJose,USA,-122.4333,37.7833,[-122.9333 37.2833 -121.9333 38.2833],2.751,1.371,3.771,2.751,2.851,1.548,4.245,3.066,211.0,567.0
2015-03-02,SanFrancisco-SanJose,USA,-122.4333,37.7833,[-122.9333 37.2833 -121.9333 38.2833],2.809,1.404,4.104,2.834,2.917,1.585,4.411,3.128,229.0,567.0
2015-03-03,SanFrancisco-SanJose,USA,-122.4333,37.7833,[-122.9333 37.2833 -121.9333 38.2833],2.816,1.404,4.143,2.853,2.752,1.539,4.357,3.025,204.0,573.0
2015-03-04,SanFrancisco-SanJose,USA,-122.4333,37.7833,[-122.9333 37.2833 -121.9333 38.2833],2.809,1.371,4.104,2.847,2.603,1.294,3.992,2.78,206.0,569.0
2015-03-05,SanFrancisco-SanJose,USA,-122.4333,37.7833,[-122.9333 37.2833 -121.9333 38.2833],2.371,1.16,3.595,2.557,2.309,1.147,3.5,2.521,177.0,569.0
2015-03-06,SanFrancisco-SanJose,USA,-122.4333,37.7833,[-122.9333 37.2833 -121.9333 38.2833],2.543,1.178,4.104,2.942,2.347,1.144,3.619,2.594,190.0,560.0
2015-03-07,SanFrancisco-SanJose,USA,-122.4333,37.7833,[-122.9333 37.2833 -121.9333 38.2833],2.847,1.59,4.438,3.316,2.497,1.284,3.799,2.701,164.0,566.0
2015-03-08,SanFrancisco-SanJose,USA,-122.4333,37.7833,[-122.9333 37.2833 -121.9333 38.2833],2.834,1.426,4.501,3.282,2.433,1.222,3.818,2.711,179.0,561.0
2015-03-09,SanFrancisco-SanJose,USA,-122.4333,37.7833,[-122.9333 37.2833 -121.9333 38.2833],2.822,1.346,5.181,3.336,2.335,1.274,3.863,2.654,159.0,567.0
2015-03-10,SanFrancisco-SanJose,USA,-122.4333,37.7833,[-122.9333 37.2833 -121.9333 38.2833],2.706,1.363,4.41,3.192,2.301,1.288,3.613,2.63,156.0,568.0
2015-03-11,SanFrancisco-SanJose,USA,-122.4333,37.7833,[-122.9333 37.2833 -121.9333 38.2833],2.706,1.391,4.501,3.255,2.314,1.263,3.634,2.628,184.0,569.0
2015-03-12,SanFrancisco-SanJose,USA,-122.4333,37.7833,[-122.9333 37.2833 -121.9333 38.2833],2.371,1.346,3.767,3.102,2.225,1.265,3.447,2.605,163.0,575.0
2015-03-13,SanFrancisco-SanJose,USA,-122.4333,37.7833,[-122.9333 37.2833 -121.9333 38.2833],2.531,1.346,4.143,3.13,2.43,1.348,3.588,2.631,173.0,561.0
2015-03-14,SanFrancisco-SanJose,USA,-122.4333,37.7833,[-122.9333 37.2833 -121.9333 38.2833],2.662,1.391,4.501,3.313,2.462,1.365,3.692,2.659,142.0,521.0
2015-03-15,SanFrancisco-SanJose,USA,-122.4333,37.7833,[-122.9333 37.2833 -121.9333 38.2833],2.416,1.353,3.943,3.117,2.192,1.281,3.446,2.472,161.0,511.0
2015-03-16,SanFrancisco-SanJose,USA,-122.4333,37.7833,[-122.9333 37.2833 -121.9333 38.2833],2.821,1.391,4.942,3.456,2.299,1.254,3.715,2.524,131.0,524.0
2015-03-17,SanFrancisco-SanJose,USA,-122.4333,37.7833,[-122.9333 37.2833 -121.9333 38.2833],2.664,1.353,4.591,3.346,2.277,1.268,3.642,2.476,110.0,519.0
2015-03-18,SanFrancisco-SanJose,USA,-122.4333,37.7833,[-122.9333 37.2833 -121.9333 38.2833],2.664,1.353,4.591,3.356,2.308,1.347,3.614,2.501,140.0,520.0
2015-03-19,SanFrancisco-SanJose,USA,-122.4333,37.7833,[-122.9333 37.2833 -121.9333 38.2833],2.684,1.391,4.591,3.367,2.409,1.413,3.59,2.582,144.0,524.0
2015-03-20,SanFrancisco-SanJose,USA,-122.4333,37.7833,[-122.9333 37.2833 -121.9333 38.2833],2.58,1.292,4.451,3.257,2.357,1.355,3.46,2.499,159.0,520.0
2015-03-21,SanFrancisco-SanJose,USA,-122.4333,37.7833,[-122.9333 37.2833 -121.9333 38.2833],2.276,1.211,3.691,2.72,2.26,1.356,3.306,2.396,146.0,520.0
2015-03-22,SanFrancisco-SanJose,USA,-122.4333,37.7833,[-122.9333 37.2833 -121.9333 38.2833],2.273,1.211,3.431,2.52,2.247,1.318,3.202,2.345,177.0,511.0
2015-03-23,SanFrancisco-SanJose,USA,-122.4333,37.7833,[-122.9333 37.2833 -121.9333 38.2833],2.276,1.265,3.316,2.453,2.276,1.302,3.2,2.332,162.0,517.0
2015-03-24,SanFrancisco-SanJose,USA,-122.4333,37.7833,[-122.9333 37.2833 -121.9333 38.2833],2.073,1.211,3.101,2.299,2.257,1.255,3.189,2.315,193.0,515.0
2015-03-25,SanFrancisco-SanJose,USA,-122.4333,37.7833,[-122.9333 37.2833 -121.9333 38.2833],2.19,1.047,3.154,2.328,2.212,1.252,3.11,2.275,172.0,522.0
2015-03-26,SanFrancisco-SanJose,USA,-122.4333,37.7833,[-122.9333 37.2833 -121.9333 38.2833],2.132,1.231,2.885,2.209,2.12,1.214,3.001,2.214,164.0,527.0
2015-03-27,SanFrancisco-SanJose,USA,-122.4333,37.7833,[-122.9333 37.2833 -121.9333 38.2833],2.132,1.204,2.961,2.227,2.133,1.195,2.973,2.184,192.0,529.0
2015-03-28,SanFrancisco-SanJose,USA,-122.4333,37.7833,[-122.9333 37.2833 -121.9333 38.2833],2.113,1.162,2.821,2.156,2.112,1.165,2.94,2.161,182.0,536.0
2015-03-29,SanFrancisco-SanJose,USA,-122.4333,37.7833,[-122.9333 37.2833 -121.9333 38.2833],2.005,1.149,2.821,2.119,2.106,1.218,2.954,2.166,191.0,563.0
2015-03-30,SanFrancisco-SanJose,USA,-122.4333,37.7833,[-122.9333 37.2833 -121.9333 38.2833],2.005,1.204,2.76,2.115,2.111,1.223,2.945,2.182,172.0,567.0
2015-03-31,SanFrancisco-SanJose,USA,-122.4333,37.7833,[-122.9333 37.2833 -121.9333 38.2833],2.005,1.047,2.726,2.101,2.118,1.166,2.953,2.189,187.0,552.0
2015-04-01,SanFrancisco-SanJose,USA,-122.4333,37.7833,[-122.9333 37.2833 -121.9333 38.2833],2.0,1.047,2.726,2.09,2.086,1.168,2.917,2.152,185.0,561.0
2015-04-02,SanFrancisco-SanJose,USA,-122.4333,37.7833,[-122.9333 37.2833 -121.9333 38.2833],2.155,1.353,3.158,2.512,2.077,1.221,2.987,2.228,185.0,557.0
2015-04-03,SanFrancisco-SanJose,USA,-122.4333,37.7833,[-122.9333 37.2833 -121.9333 38.2833],2.28,1.353,3.185,2.567,2.132,1.216,3.036,2.275,210.0,560.0
2015-04-04,SanFrancisco-SanJose,USA,-122.4333,37.7833,[-122.9333 37.2833 -121.9333 38.2833],2.322,1.363,3.185,2.618,2.146,1.238,3.093,2.337,200.0,562.0
2015-04-05,SanFrancisco-SanJose,USA,-122.4333,37.7833,[-122.9333 37.2833 -121.9333 38.2833],2.322,1.363,3.347,2.615,2.147,1.227,3.11,2.31,226.0,558.0
2015-04-06,SanFrancisco-SanJose,USA,-122.4333,37.7833,[-122.9333 37.2833 -121.9333 38.2833],2.357,1.379,3.493,2.773,2.107,1.215,3.077,2.342,195.0,558.0
2015-04-07,SanFrancisco-SanJose,USA,-122.4333,37.7833,[-122.9333 37.2833 -121.9333 38.2833],2.357,1.51,3.417,2.717,2.138,1.274,3.079,2.302,226.0,551.0
2015-04-08,SanFrancisco-SanJose,USA,-122.4333,37.7833,[-122.9333 37.2833 -121.9333 38.2833],2.561,1.736,3.958,2.93,2.171,1.291,3.176,2.323,195.0,556.0
2015-04-09,SanFrancisco-SanJose,USA,-122.4333,37.7833,[-122.9333 37.2833 -121.9333 38.2833],2.326,1.591,3.492,2.722,2.146,1.275,3.135,2.328,229.0,552.0
2015-04-10,SanFrancisco-SanJose,USA,-122.4333,37.7833,[-122.9333 37.2833 -121.9333 38.2833],2.326,1.547,3.881,2.77,2.187,1.337,3.229,2.358,209.0,556.0
2015-04-11,SanFrancisco-SanJose,USA,-122.4333,37.7833,[-122.9333 37.2833 -121.9333 38.2833],2.297,1.568,3.421,2.688,2.159,1.35,3.158,2.372,201.0,559.0
2015-04-12,SanFrancisco-SanJose,USA,-122.4333,37.7833,[-122.9333 37.2833 -121.9333 38.2833],2.297,1.547,3.36,2.64,2.173,1.346,3.281,2.405,219.0,561.0
2015-04-13,SanFrancisco-SanJose,USA,-122.4333,37.7833,[-122.9333 37.2833 -121.9333 38.2833],2.304,1.547,3.421,2.648,2.132,1.3,3.263,2.365,225.0,570.0
2015-04-14,SanFrancisco-SanJose,USA,-122.4333,37.7833,[-122.9333 37.2833 -121.9333 38.2833],2.304,1.547,3.402,2.645,2.128,1.273,3.221,2.317,229.0,556.0
2015-04-15,SanFrancisco-SanJose,USA,-122.4333,37.7833,[-122.9333 37.2833 -121.9333 38.2833],2.335,1.568,3.488,2.716,2.071,1.242,3.135,2.281,214.0,523.0
2015-04-16,SanFrancisco-SanJose,USA,-122.4333,37.7833,[-122.9333 37.2833 -121.9333 38.2833],2.304,1.563,3.492,2.649,2.103,1.263,3.146,2.298,242.0,517.0
2015-04-17,SanFrancisco-SanJose,USA,-122.4333,37.7833,[-122.9333 37.2833 -121.9333 38.2833],2.161,1.497,2.988,2.242,1.987,1.212,2.964,2.141,212.0,526.0
2015-04-18,SanFrancisco-SanJose,USA,-122.4333,37.7833,[-122.9333 37.2833 -121.9333 38.2833],1.971,1.236,2.633,2.048,1.931,1.138,2.825,2.055,211.0,522.0
2015-04-19,SanFrancisco-SanJose,USA,-122.4333,37.7833,[-122.9333 37.2833 -121.9333 38.2833],1.94,1.157,2.572,1.972,1.985,1.143,2.895,2.072,236.0,530.0
2015-04-20,SanFrancisco-SanJose,USA,-122.4333,37.7833,[-122.9333 37.2833 -121.9333 38.2833],1.907,1.157,2.572,1.949,1.989,1.137,2.937,2.081,236.0,537.0
2015-04-21,SanFrancisco-SanJose,USA,-122.4333,37.7833,[-122.9333 37.2833 -121.9333 38.2833],1.906,1.13,2.572,1.918,2.025,1.146,2.842,2.067,260.0,533.0
2015-04-22,SanFrancisco-SanJose,USA,-122.4333,37.7833,[-122.9333 37.2833 -121.9333 38.2833],1.827,1.01,2.516,1.865,2.043,1.144,2.871,2.097,247.0,531.0
2015-04-23,SanFrancisco-SanJose,USA,-122.4333,37.7833,[-122.9333 37.2833 -121.9333 38.2833],1.94,1.09,2.426,1.896,2.004,1.141,2.805,2.054,277.0,520.0
2015-04-24,SanFrancisco-SanJose,USA,-122.4333,37.7833,[-122.9333 37.2833 -121.9333 38.2833],1.985,1.09,2.536,1.918,2.022,1.151,2.869,2.076,243.0,525.0
2015-04-25,SanFrancisco-SanJose,USA,-122.4333,37.7833,[-122.9333 37.2833 -121.9333 38.2833],1.83,0.905,2.387,1.8,1.993,1.17,2.79,2.046,268.0,518.0
2015-04-26,SanFrancisco-SanJose,USA,-122.4333,37.7833,[-122.9333 37.2833 -121.9333 38.2833],1.658,0.876,2.415,1.758,1.96,1.154,2.779,2.026,257.0,523.0
2015-04-27,SanFrancisco-SanJose,USA,-122.4333,37.7833,[-122.9333 37.2833 -121.9333 38.2833],1.658,0.89,2.387,1.757,1.896,1.05,2.691,1.937,255.0,522.0
2015-04-28,SanFrancisco-SanJose,USA,-122.4333,37.7833,[-122.9333 37.2833 -121.9333 38.2833],1.639,0.876,2.359,1.739,1.854,1.05,2.639,1.911,266.0,523.0
2015-04-29,SanFrancisco-SanJose,USA,-122.4333,37.7833,[-122.9333 37.2833 -121.9333 38.2833],1.639,0.894,2.387,1.762,1.804,1.014,2.65,1.908,289.0,527.0
2015-04-30,SanFrancisco-SanJose,USA,-122.4333,37.7833,[-122.9333 37.2833 -121.9333 38.2833],1.639,0.89,2.387,1.759,1.811,0.998,2.649,1.884,291.0,553.0
2015-05-01,SanFrancisco-SanJose,USA,-122.4333,37.7833,[-122.9333 37.2833 -121.9333 38.2833],1.554,0.813,2.342,1.655,1.734,0.946,2.586,1.811,263.0,557.0
2015-05-02,SanFrancisco-SanJose,USA,-122.4333,37.7833,[-122.9333 37.2833 -121.9333 38.2833],1.511,0.761,2.325,1.59,1.775,0.974,2.653,1.841,284.0,554.0
2015-05-03,SanFrancisco-SanJose,USA,-122.4333,37.7833,[-122.9333 37.2833 -121.9333 38.2833],1.466,0.691,2.342,1.594,1.803,0.983,2.698,1.868,254.0,566.0
2015-05-04,SanFrancisco-SanJose,USA,-122.4333,37.7833,[-122.9333 37.2833 -121.9333 38.2833],1.629,0.813,2.489,1.714,1.737,0.967,2.66,1.827,253.0,561.0
2015-05-05,SanFrancisco-SanJose,USA,-122.4333,37.7833,[-122.9333 37.2833 -121.9333 38.2833],1.481,0.767,2.342,1.637,1.703,0.934,2.584,1.804,258.0,563.0
2015-05-06,SanFrancisco-SanJose,USA,-122.4333,37.7833,[-122.9333 37.2833 -121.9333 38.2833],1.635,0.871,2.426,1.719,1.664,0.894,2.509,1.742,264.0,571.0
2015-05-07,SanFrancisco-SanJose,USA,-122.4333,37.7833,[-122.9333 37.2833 -121.9333 38.2833],1.542,0.834,2.351,1.669,1.611,0.868,2.405,1.679,253.0,568.0
2015-05-08,SanFrancisco-SanJose,USA,-122.4333,37.7833,[-122.9333 37.2833 -121.9333 38.2833],1.383,0.745,2.447,1.606,1.607,0.854,2.475,1.696,237.0,567.0
2015-05-09,SanFrancisco-SanJose,USA,-122.4333,37.7833,[-122.9333 37.2833 -121.9333 38.2833],1.394,0.834,2.325,1.59,1.538,0.849,2.32,1.632,265.0,555.0
2015-05-10,SanFrancisco-SanJose,USA,-122.4333,37.7833,[-122.9333 37.2833 -121.9333 38.2833],1.539,0.929,2.437,1.689,1.557,0.852,2.345,1.643,240.0,563.0
2015-05-11,SanFrancisco-SanJose,USA,-122.4333,37.7833,[-122.9333 37.2833 -121.9333 38.2833],1.533,0.932,2.39,1.692,1.572,0.86,2.375,1.645,241.0,578.0
2015-05-12,SanFrancisco-SanJose,USA,-122.4333,37.7833,[-122.9333 37.2833 -121.9333 38.2833],1.505,0.921,2.426,1.654,1.611,0.875,2.44,1.681,244.0,585.0
2015-05-13,SanFrancisco-SanJose,USA,-122.4333,37.7833,[-122.9333 37.2833 -121.9333 38.2833],1.535,0.929,2.426,1.685,1.587,0.875,2.418,1.68,226.0,606.0
2015-05-14,SanFrancisco-SanJose,USA,-122.4333,37.7833,[-122.9333 37.2833 -121.9333 38.2833],1.542,0.925,2.426,1.684,1.547,0.837,2.408,1.647,211.0,651.0
2015-05-15,SanFrancisco-SanJose,USA,-122.4333,37.7833,[-122.9333 37.2833 -121.9333 38.2833],1.55,0.932,2.385,1.692,1.624,0.85,2.475,1.687,221.0,686.0
2015-05-16,SanFrancisco-SanJose,USA,-122.4333,37.7833,[-122.9333 37.2833 -121.9333 38.2833],1.55,0.921,2.385,1.685,1.644,0.872,2.498,1.729,240.0,671.0
2015-05-17,SanFrancisco-SanJose,USA,-122.4333,37.7833,[-122.9333 37.2833 -121.9333 38.2833],1.619,1.002,2.567,1.779,1.622,0.869,2.534,1.701,219.0,629.0
2015-05-18,SanFrancisco-SanJose,USA,-122.4333,37.7833,[-122.9333 37.2833 -121.9333 38.2833],1.578,1.002,2.567,1.752,1.584,0.853,2.513,1.697,233.0,625.0
2015-05-19,SanFrancisco-SanJose,USA,-122.4333,37.7833,[-122.9333 37.2833 -121.9333 38.2833],1.55,0.992,2.365,1.673,1.595,0.849,2.476,1.702,204.0,637.0
2015-05-20,SanFrancisco-SanJose,USA,-122.4333,37.7833,[-122.9333 37.2833 -121.9333 38.2833],1.625,1.057,2.154,1.723,1.561,0.834,2.416,1.693,194.0,633.0
2015-05-21,SanFrancisco-SanJose,USA,-122.4333,37.7833,[-122.9333 37.2833 -121.9333 38.2833],1.557,1.002,2.058,1.615,1.639,0.941,2.509,1.742,193.0,633.0
2015-05-22,SanFrancisco-SanJose,USA,-122.4333,37.7833,[-122.9333 37.2833 -121.9333 38.2833],1.619,1.022,2.121,1.675,1.64,0.913,2.479,1.729,207.0,639.0
2015-05-23,SanFrancisco-SanJose,USA,-122.4333,37.7833,[-122.9333 37.2833 -121.9333 38.2833],1.55,1.002,2.058,1.594,1.637,0.924,2.462,1.709,211.0,637.0
2015-05-24,SanFrancisco-SanJose,USA,-122.4333,37.7833,[-122.9333 37.2833 -121.9333 38.2833],1.535,0.845,2.108,1.542,1.665,0.923,2.488,1.729,200.0,639.0
2015-05-25,SanFrancisco-SanJose,USA,-122.4333,37.7833,[-122.9333 37.2833 -121.9333 38.2833],1.505,0.844,2.058,1.519,1.669,0.958,2.407,1.701,223.0,629.0
2015-05-26,SanFrancisco-SanJose,USA,-122.4333,37.7833,[-122.9333 37.2833 -121.9333 38.2833],1.51,0.838,2.058,1.515,1.592,0.93,2.365,1.657,213.0,614.0
2015-05-27,SanFrancisco-SanJose,USA,-122.4333,37.7833,[-122.9333 37.2833 -121.9333 38.2833],1.535,0.858,2.084,1.561,1.549,0.902,2.35,1.646,203.0,611.0
2015-05-28,SanFrancisco-SanJose,USA,-122.4333,37.7833,[-122.9333 37.2833 -121.9333 38.2833],1.446,0.844,2.058,1.528,1.502,0.889,2.346,1.626,217.0,595.0
2015-05-29,SanFrancisco-SanJose,USA,-122.4333,37.7833,[-122.9333 37.2833 -121.9333 38.2833],1.362,0.838,2.032,1.482,1.534,0.923,2.312,1.623,225.0,552.0
2015-05-30,SanFrancisco-SanJose,USA,-122.4333,37.7833,[-122.9333 37.2833 -121.9333 38.2833],1.362,0.832,2.032,1.475,1.526,0.915,2.276,1.616,229.0,527.0
2015-05-31,SanFrancisco-SanJose,USA,-122.4333,37.7833,[-122.9333 37.2833 -121.9333 38.2833],1.362,0.838,1.995,1.463,1.522,0.956,2.193,1.601,230.0,535.0
2015-06-01,SanFrancisco-SanJose,USA,-122.4333,37.7833,[-122.9333 37.2833 -121.9333 38.2833],1.498,0.868,2.044,1.574,1.544,0.95,2.198,1.622,250.0,562.0
2015-06-02,SanFrancisco-SanJose,USA,-122.4333,37.7833,[-122.9333 37.2833 -121.9333 38.2833],1.516,0.868,2.044,1.587,1.48,0.926,2.17,1.594,236.0,560.0
2015-06-03,SanFrancisco-SanJose,USA,-122.4333,37.7833,[-122.9333 37.2833 -121.9333 38.2833],1.516,0.868,2.044,1.587,1.466,0.931,2.173,1.59,236.0,553.0
2015-06-04,SanFrancisco-SanJose,USA,-122.4333,37.7833,[-122.9333 37.2833 -121.9333 38.2833],1.417,0.818,2.044,1.58,1.505,0.963,2.199,1.622,215.0,563.0